Weather History for Kozani, Greece

Change the Weather History Date:

Wednesday, May 15, 2013

  Actual Average Record
Temperature  
Mean Temperature 62 °F -  
Max Temperature 75 °F - - ()
Min Temperature 50 °F - - ()
Degree Days  
Heating Degree Days 2    
Growing Degree Days 12 (Base 50)    
Moisture  
Dew Point 46 °F    
Average Humidity 61    
Maximum Humidity 82    
Minimum Humidity 34    
Precipitation  
Precipitation 0.00 in - - ()
Sea Level Pressure  
Sea Level Pressure 29.88 in    
Wind  
Wind Speed 4 mph ()    
Max Wind Speed 9 mph    
Max Gust Speed -    
Visibility 6.2 miles    
Events      
T = Trace of Precipitation, MM = Missing Value Source: Averaged Metar Reports

Daily Weather History Graph

Daily Weather History Graph

Search for Another Location

Airport:

Trip Planner

Search our weather history database for the weather conditions in past years. The results will help you decide how hot, cold, wet, or windy it might be!

Date:

Astronomy

May. 15, 2013 Rise Set
Actual Time 6:16 AM EEST 8:41 PM EEST
Civil Twilight 5:45 AM EEST 9:12 PM EEST
Nautical Twilight 5:07 AM EEST 9:51 PM EEST
Astronomical Twilight 4:25 AM EEST 10:33 PM EEST
Moon 10:34 AM EEST (5/15) 12:16 AM EEST (5/15)
Length of Visible Light 15h 26m
Length of Day
14h 25m
Waxing Crescent, 24% of the Moon is Illuminated
May 15
Waxing Crescent
May 18
First Quarter
May 25
Full
May 31
Last Quarter
Jun 8
New

Hourly Weather History & Observations

Time (EEST) Temp. Dew Point Humidity Pressure Visibility Wind Dir Wind Speed Gust Speed Precip Events Conditions
12:20 AM 51.8 °F 44.6 °F 76% 29.92 in - NNE 4.6 mph - N/A   Unknown
12:50 AM 51.8 °F 44.6 °F 76% 29.92 in - Variable 3.5 mph - N/A   Unknown
1:20 AM 51.8 °F 44.6 °F 76% 29.89 in - Variable 3.5 mph - N/A   Unknown
1:50 AM 50.0 °F 44.6 °F 82% 29.89 in - Variable 1.2 mph - N/A   Unknown
2:20 AM 51.8 °F 44.6 °F 76% 29.89 in - NW 5.8 mph - N/A   Unknown
2:50 AM 53.6 °F 44.6 °F 72% 29.89 in - NW 6.9 mph - N/A   Unknown
3:20 AM 50.0 °F 44.6 °F 82% 29.89 in - NNW 5.8 mph - N/A   Unknown
3:50 AM 53.6 °F 44.6 °F 72% 29.89 in - NNW 9.2 mph - N/A   Unknown
4:20 AM 51.8 °F 44.6 °F 76% 29.89 in - Variable 3.5 mph - N/A   Unknown
4:50 AM 51.8 °F 42.8 °F 71% 29.89 in - NW 4.6 mph - N/A   Unknown
5:20 AM 50.0 °F 42.8 °F 76% 29.89 in - Variable 3.5 mph - N/A   Unknown
5:50 AM 51.8 °F 42.8 °F 71% 29.89 in - Variable 2.3 mph - N/A   Unknown
6:20 AM 51.8 °F 42.8 °F 71% 29.89 in - NNW 5.8 mph - N/A   Unknown
6:50 AM 50.0 °F 42.8 °F 76% 29.89 in - NNW 5.8 mph - N/A   Unknown
7:20 AM 51.8 °F 44.6 °F 76% 29.89 in - Variable 2.3 mph - N/A   Unknown
7:50 AM 55.4 °F 44.6 °F 67% 29.89 in - NW 4.6 mph - N/A   Unknown
8:20 AM 55.4 °F 44.6 °F 67% 29.92 in - NW 5.8 mph - N/A   Unknown
8:50 AM 59.0 °F 44.6 °F 59% 29.92 in 6.2 mi NNW 5.8 mph - N/A   Scattered Clouds
9:50 AM 62.6 °F 44.6 °F 52% 29.89 in 6.2 mi Calm Calm - N/A   Scattered Clouds
10:50 AM 66.2 °F 46.4 °F 49% 29.89 in 6.2 mi SE 4.6 mph - N/A   Scattered Clouds
11:50 AM 68.0 °F 48.2 °F 49% 29.89 in 6.2 mi SSE 5.8 mph - N/A   Scattered Clouds
12:50 PM 71.6 °F 50.0 °F 46% 29.89 in 6.2 mi SSW 4.6 mph - N/A   Scattered Clouds
1:50 PM 71.6 °F 46.4 °F 41% 29.89 in 6.2 mi SSE 6.9 mph - N/A   Scattered Clouds
2:50 PM 75.2 °F 46.4 °F 36% 29.86 in 6.2 mi SSE 5.8 mph - N/A   Scattered Clouds
3:20 PM 75.2 °F 46.4 °F 36% 29.86 in - ESE 4.6 mph - N/A   Unknown
3:50 PM 75.2 °F 46.4 °F 36% 29.86 in - East 4.6 mph - N/A   Unknown
4:20 PM 75.2 °F 46.4 °F 36% 29.86 in - South 5.8 mph - N/A   Unknown
4:50 PM 73.4 °F 44.6 °F 36% 29.86 in - East 5.8 mph - N/A   Unknown
5:20 PM 75.2 °F 44.6 °F 34% 29.83 in - SSW 6.9 mph - N/A   Unknown
5:50 PM 75.2 °F 44.6 °F 34% 29.83 in - South 5.8 mph - N/A   Unknown
6:20 PM 71.6 °F 46.4 °F 41% 29.83 in - SE 5.8 mph - N/A   Unknown
6:50 PM 71.6 °F 46.4 °F 41% 29.83 in - South 5.8 mph - N/A   Unknown
7:20 PM 71.6 °F 48.2 °F 43% 29.83 in - South 6.9 mph - N/A   Unknown
7:50 PM 69.8 °F 50.0 °F 49% 29.83 in - SSE 4.6 mph - N/A   Unknown
8:20 PM 64.4 °F 50.0 °F 59% 29.83 in - East 4.6 mph - N/A   Unknown
8:50 PM 60.8 °F 50.0 °F 68% 29.86 in - SSE 5.8 mph - N/A   Unknown
9:20 PM 62.6 °F 50.0 °F 63% 29.86 in - Variable 1.2 mph - N/A   Unknown
9:50 PM 59.0 °F 50.0 °F 72% 29.86 in - Variable 1.2 mph - N/A   Unknown
10:20 PM 57.2 °F 50.0 °F 77% 29.89 in - Variable 1.2 mph - N/A   Unknown
10:50 PM 57.2 °F 50.0 °F 77% 29.89 in - Variable 3.5 mph - N/A   Unknown
11:20 PM 57.2 °F 50.0 °F 77% 29.89 in - Variable 3.5 mph - N/A   Unknown
11:50 PM 57.2 °F 50.0 °F 77% 29.89 in - NNE 5.8 mph - N/A   Unknown